Home   Weather   Jena   Past weeks

Flag for Germany Past Weather in Jena, Thuringia, Germany — Yesterday and Last 2 Weeks

45 °F

Broken clouds.

Feels Like: 42 °F
Forecast: 42 / 53 °F
Wind: 5 mph from East

Location: Erfurt-Bindersleben

Current Time: Oct 23, 2016 at 6:25:15 PM

Latest Report: Oct 23, 2016 at 5:50 PM

Visibility: N/A

Pressure: 29.92 "Hg

Humidity: 93%

Dew Point: 43 °F

Location of JenaLocation

Past Weather in Jena — Graph


Jena Temperature Yesterday

Maximum temperature yesterday: 45 °F (at 1:20 PM)
Minimum temperature yesterday: 39 °F (at 5:20 AM)
Average temperature yesterday: 42 °F

High & Low Weather Summary for the Past Weeks

High63 °F (Oct 16, 1:20 PM)100% (Oct 8, 5:50 PM)30.27 "Hg (Oct 8, 5:50 PM)
Low36 °F (Oct 23, 12:20 AM)62% (Oct 9, 2:20 PM)29.74 "Hg (Oct 15, 1:20 AM)
Average46 °F91%30.04 "Hg
* Reported Oct 8 5:20 PM — Oct 23 5:20 PM, Jena, Weather by CustomWeather, © 2016

Note: Actual official high and low records may vary slightly from our data, if they occured in-between our weather recording intervals... More about our weather records


Jena Weather History for the Previous 24 Hours

Scroll right to see more
Time TempWeatherWind HumidityBarometerVisibility
5:20 PM
Sun, Oct 23
45 °FPartly sunny.3 mph100%29.92 "HgN/A
4:50 PM45 °FScattered clouds.5 mph100%29.92 "Hg5 mi
4:20 PM45 °FPartly sunny.6 mph100%29.92 "Hg4 mi
3:50 PM45 °FPartly sunny.6 mph100%29.92 "Hg4 mi
3:20 PM45 °FFog.6 mph100%29.92 "Hg2 mi
2:50 PM43 °FFog.5 mph100%29.92 "Hg2 mi
2:20 PM43 °FFog.5 mph100%29.95 "Hg1 mi
1:50 PM43 °FFog.5 mph100%29.95 "Hg0 mi
1:20 PM41 °FFog.5 mph100%29.95 "Hg0 mi
12:50 PM41 °FFog.5 mph100%29.95 "Hg0 mi
12:20 PM41 °FFog.5 mph100%29.98 "Hg0 mi
11:50 AM39 °FFog.3 mph100%29.98 "Hg0 mi
11:20 AM39 °FFog.3 mph100%29.98 "Hg0 mi
10:50 AM39 °FFog.2 mph100%29.98 "Hg0 mi
10:20 AM37 °FFog.2 mph100%29.95 "Hg0 mi
9:50 AM37 °FFog.2 mph100%29.95 "Hg0 mi
9:20 AM37 °FFog.2 mph100%29.95 "Hg0 mi
8:50 AM37 °FFog.2 mph100%29.95 "Hg0 mi
8:20 AM37 °FFog.2 mph100%29.95 "Hg0 mi
7:50 AM37 °FFog.2 mph100%29.95 "Hg0 mi
7:20 AM37 °FFog.1 mph100%29.95 "Hg0 mi
6:50 AM37 °FFog.3 mph100%29.95 "Hg0 mi
6:20 AM37 °FFog.1 mph100%29.95 "Hg0 mi
5:50 AM37 °FFog.1 mph100%29.95 "Hg0 mi
5:20 AM37 °FFog.3 mph100%29.95 "Hg0 mi
4:50 AM37 °FFog.3 mph100%29.95 "Hg0 mi
4:20 AM39 °FFog.2 mph100%29.95 "Hg0 mi
3:50 AM39 °FFog.2 mph100%29.95 "Hg0 mi
3:20 AM39 °FFog.1 mph100%29.95 "Hg0 mi
2:50 AM37 °FFog.No wind100%29.95 "Hg2 mi
2:20 AM39 °FFog.2 mph100%29.95 "HgN/A
1:50 AM37 °FChilly.5 mph100%29.95 "HgN/A
1:20 AM39 °FFog.3 mph100%29.95 "Hg1 mi
12:50 AM37 °FFog.3 mph100%29.95 "Hg1 mi
12:20 AM36 °FSnow. Overcast.7 mph100%29.95 "HgN/A
11:50 PM
Sat, Oct 22
39 °FFog.3 mph100%29.95 "HgN/A
11:20 PM39 °FFog.1 mph100%29.95 "HgN/A
10:50 PM41 °FPassing clouds.3 mph93%29.95 "HgN/A
10:20 PM41 °FPassing clouds.3 mph93%29.98 "HgN/A
9:50 PM41 °FPassing clouds.3 mph100%29.95 "HgN/A
9:20 PM41 °FPassing clouds.2 mph100%29.95 "HgN/A
8:50 PM41 °FPassing clouds.3 mph100%29.95 "HgN/A
8:20 PM41 °FPassing clouds.3 mph100%29.95 "HgN/A
7:50 PM41 °FPassing clouds.3 mph93%29.95 "HgN/A
7:20 PM41 °FPassing clouds.3 mph93%29.95 "HgN/A
6:50 PM43 °FPassing clouds.3 mph93%29.92 "HgN/A
6:20 PM43 °FPassing clouds.3 mph93%29.92 "HgN/A
Weather by CustomWeather, © 2016

See weather overviewHow to use our weather pages